Theta_e
316 317 317 317 317 317 318 318 317 317 318 318 317 317 317 318 318 318 320 322 322 322 323 320 321 322 320 324 328 330 329 331 333 332 332 336 339 346 344 345 344 342 342 339
316 317 317 316 316 316 317 317 316 315 316 316 316 317 317 317 318 319 319 320 321 322 322 323 321 320 323 325 325 327 329 330 329 329 328 329 330 328 333 340 345 344 343 341
316 317 317 316 315 316 316 316 315 315 316 316 317 318 318 317 318 319 319 319 320 321 321 323 323 322 323 324 324 323 322 325 327 327 324 324 326 327 327 327 329 336 346 346
316 316 316 315 315 314 314 315 315 316 316 316 316 318 318 318 319 319 319 319 320 319 320 322 323 324 323 322 321 321 323 321 321 327 327 325 326 327 326 328 329 331 337 345
316 316 316 316 315 315 315 315 315 315 316 316 316 317 317 318 318 318 320 320 318 318 319 320 320 319 320 320 319 321 322 321 320 321 325 328 328 329 327 327 325 328 336 337
316 316 316 316 316 315 315 315 315 315 315 317 316 317 318 318 319 319 319 318 318 318 319 320 319 320 320 319 319 319 321 323 323 322 323 324 327 329 328 326 331 332 331 333
318 318 317 317 316 316 315 315 317 318 319 319 318 319 321 321 317 318 319 318 317 315 317 318 320 322 321 320 320 320 320 322 325 325 324 324 324 326 329 329 330 329 326 331
318 318 317 317 317 317 317 317 318 320 323 321 319 321 319 319 319 317 317 318 316 315 316 318 319 322 320 319 320 320 320 322 323 324 324 324 324 325 326 327 327 326 326 325
319 318 318 318 317 317 318 319 317 318 320 323 321 317 317 319 320 318 316 316 316 316 318 317 318 318 318 318 319 320 320 320 322 321 321 323 323 323 325 326 327 329 333 333
316 317 316 316 316 317 317 317 317 318 323 323 317 316 317 319 319 317 315 315 316 317 317 317 319 319 317 316 316 320 320 322 320 322 321 320 320 324 324 325 327 326 327 328
316 317 317 316 317 317 317 319 318 317 319 322 321 317 320 319 319 318 318 316 317 317 316 316 318 318 317 316 317 319 321 321 321 319 319 320 319 319 322 324 325 327 328 329
317 318 318 319 317 316 317 318 319 323 322 322 320 321 319 318 319 319 319 316 316 318 318 317 318 318 317 317 317 317 319 319 319 318 317 317 319 320 323 322 324 326 329 330
317 318 320 318 317 317 320 318 318 319 321 322 324 321 317 320 319 318 318 317 318 318 318 317 317 319 319 317 318 317 317 318 318 318 318 317 316 317 320 322 321 324 327 330
315 316 317 319 315 316 318 318 318 318 322 323 320 317 316 318 320 318 317 317 317 319 319 318 319 318 319 318 318 318 318 318 318 318 318 317 317 316 316 321 324 324 325 326
315 318 317 316 314 314 313 314 314 318 319 322 318 315 316 317 318 319 317 317 318 316 318 319 318 320 321 320 320 319 318 318 318 318 318 318 317 316 317 318 319 321 324 325
316 320 317 315 313 313 312 312 311 311 313 317 313 314 314 316 316 315 316 317 318 318 318 319 319 319 319 320 320 319 319 319 319 318 318 317 316 315 315 317 317 318 318 325
311 311 313 313 311 312 316 316 315 313 315 314 316 318 319 319 318 319 318 318 319 318 318 318 318 319 321 319 318 319 320 319 318 319 318 317 316 315 314 314 315 317 318 320
310 310 312 315 313 317 312 314 315 316 316 317 318 319 319 319 318 317 317 318 319 317 317 317 319 320 319 318 318 317 316 319 319 319 319 317 316 314 313 313 314 315 315 316
313 313 316 317 317 313 312 318 318 318 317 319 320 318 317 316 316 317 316 316 316 317 317 317 316 316 316 316 315 316 317 316 318 318 317 317 316 314 313 313 313 314 315 314
316 316 318 317 317 316 320 318 317 317 323 318 317 316 316 315 316 315 317 316 316 316 316 316 314 315 315 316 316 316 316 316 319 317 316 316 316 315 314 313 313 312 312 313
319 317 315 317 318 316 318 318 317 318 321 317 315 315 315 316 315 316 316 316 315 314 314 312 312 314 314 314 313 313 312 312 314 315 314 314 314 314 313 312 312 312 312 313
319 318 320 320 320 320 316 317 318 317 315 314 315 314 313 315 315 315 315 315 314 314 313 312 312 312 312 312 311 311 312 311 313 312 311 311 311 311 310 311 311 310 312 315
318 317 321 318 319 318 316 315 314 313 313 312 311 311 311 311 311 313 314 313 312 312 310 309 311 311 310 310 310 310 310 311 311 311 311 311 311 310 309 311 310 310 315 318
313 313 315 316 314 313 311 311 310 309 309 308 307 310 309 310 310 310 310 310 309 310 309 308 308 309 309 309 309 309 310 310 311 312 312 314 319 314 310 311 313 314 322 324
314 314 313 312 311 309 308 307 306 306 306 308 306 304 304 305 306 306 307 307 308 307 306 307 307 307 307 306 307 308 310 311 312 315 319 320 315 313 311 311 313 321 326 332
312 312 312 313 308 307 306 305 305 307 307 306 304 304 303 302 303 303 304 304 304 305 304 304 304 304 305 307 309 310 310 312 316 320 328 325 320 319 318 321 321 321 331 336
Wind_Speed
14 11 12 16 17 18 16 17 17 21 22 17 16 17 14 14 18 20 15 17 17 16 14 18 9 11 9 7 6 8 11 21 27 25 14 9 8 11 18 20 17 21 21 23
14 14 15 16 16 18 14 17 19 20 20 18 20 22 18 19 20 20 20 18 14 14 15 14 21 19 13 9 8 7 7 6 15 23 21 16 15 22 15 5 8 19 21 21
15 16 17 9 15 16 15 17 19 20 20 21 21 20 19 25 26 26 23 20 17 15 15 15 19 23 17 12 7 5 5 3 2 6 15 15 17 19 21 23 25 20 14 19
15 16 16 16 12 14 17 16 17 17 17 15 16 17 20 21 21 18 12 13 15 12 9 7 14 19 17 8 8 5 5 4 3 2 7 11 18 13 18 18 15 21 25 26
18 16 17 17 15 16 19 16 16 20 19 21 21 14 19 20 22 21 18 18 9 7 7 9 6 5 10 7 6 9 7 8 6 8 6 7 7 12 14 16 16 23 24 27
22 21 23 22 20 16 18 16 18 18 17 16 24 21 21 18 20 17 14 14 12 7 10 11 14 14 7 12 16 14 6 8 9 8 8 12 12 13 13 13 15 13 17 30
22 23 25 23 24 22 21 17 13 16 13 15 22 14 10 16 3 12 14 11 11 9 9 8 9 13 17 20 14 10 12 14 12 10 11 12 14 15 19 16 18 23 16 23
19 21 20 18 17 19 21 18 11 15 15 17 22 6 11 12 16 10 5 14 6 5 8 10 11 11 14 11 16 15 10 12 13 13 13 12 14 17 17 20 21 22 23 28
18 26 22 19 17 14 18 18 19 18 13 11 17 26 23 19 22 11 8 7 8 6 7 7 5 1 8 13 14 14 13 14 11 16 20 18 18 17 18 20 23 21 22 24
17 21 20 21 21 17 16 17 15 10 7 18 17 19 12 18 10 11 8 9 8 7 10 8 8 12 11 13 17 17 17 19 18 21 16 17 20 20 20 22 26 26 28 27
16 16 19 21 19 21 13 17 18 16 13 15 16 15 4 3 2 12 11 10 10 9 11 9 10 13 17 12 19 19 23 23 23 17 16 16 19 23 24 24 24 26 26 28
18 13 16 18 23 22 19 18 16 15 12 12 11 17 10 7 5 12 16 8 11 11 13 13 11 10 12 14 20 16 14 15 15 12 15 18 13 16 23 25 26 26 27 27
8 7 11 13 18 16 6 17 20 15 12 19 14 17 12 10 3 10 20 22 19 11 10 10 10 10 11 16 16 16 16 18 19 19 19 16 14 16 25 25 27 28 28 28
4 13 17 16 22 21 12 19 12 11 8 14 16 23 17 13 16 15 20 14 21 17 12 13 10 11 10 15 16 17 17 16 12 21 22 14 12 15 22 23 21 25 30 31
2 14 19 19 22 24 24 25 21 18 18 18 25 24 23 18 19 15 19 20 28 18 15 12 9 8 7 12 17 20 20 19 20 16 11 20 15 15 21 27 26 25 29 31
10 4 16 20 19 25 28 26 27 27 23 27 24 25 21 22 21 21 20 20 14 13 13 15 12 12 11 15 20 16 15 15 16 21 20 18 19 16 20 21 24 28 32 33
16 14 15 19 19 20 14 18 27 20 20 22 15 19 21 21 20 18 17 16 16 12 14 14 14 14 12 16 18 18 21 22 24 25 25 24 25 22 20 22 27 30 33 34
13 14 11 13 15 18 19 6 8 11 11 16 16 14 8 13 14 15 14 14 16 15 13 14 14 13 17 22 21 24 26 27 27 26 25 26 25 22 25 26 29 31 33 33
9 11 5 5 10 18 21 8 8 7 13 13 8 12 15 19 19 17 16 11 18 19 18 17 21 23 27 27 30 29 29 32 33 30 32 34 34 28 25 27 32 33 32 36
5 5 4 8 4 7 7 4 10 10 11 16 18 15 17 19 14 14 21 23 22 21 18 17 27 30 32 31 25 27 30 34 31 32 36 36 36 34 34 34 36 34 37 40
3 2 5 9 7 9 13 16 17 10 9 22 21 21 18 15 12 19 22 20 19 20 23 31 33 28 30 30 30 29 30 27 35 25 23 21 24 32 33 37 41 37 36 39
2 3 2 3 4 6 8 6 7 11 18 21 19 19 21 23 25 24 22 22 22 22 24 30 26 28 31 33 32 29 26 36 32 32 35 40 43 44 44 46 41 40 39 38
4 1 3 4 6 15 16 16 14 18 19 19 23 24 23 25 25 25 25 22 19 21 21 35 27 27 30 31 32 29 36 37 35 41 50 54 58 58 51 44 40 38 38 35
9 9 6 8 7 19 21 18 21 22 24 26 25 25 24 24 23 23 24 24 23 21 20 27 26 22 21 28 29 32 31 36 38 45 55 57 44 49 52 42 35 30 29 31
5 10 11 15 12 24 10 18 22 25 25 25 16 23 25 24 25 24 21 22 20 18 20 24 16 17 23 32 34 32 33 35 38 39 39 8 16 31 36 35 33 32 38 35
6 5 2 4 16 12 18 22 27 24 23 20 24 25 23 23 22 22 19 17 17 18 22 20 26 25 28 30 32 32 36 27 30 26 9 7 14 20 23 21 13 17 27 38
Wind_Direction
257 241 244 254 259 261 286 295 297 293 300 307 297 278 273 283 285 280 261 212 219 233 244 176 174 144 145 149 155 202 185 204 180 187 179 200 188 210 211 220 240 243 250 243
238 250 258 260 270 284 295 284 279 283 280 279 278 273 276 275 270 268 268 267 244 225 226 183 175 165 167 168 191 183 180 188 219 201 195 215 236 245 239 294 228 237 231 231
262 273 293 280 286 284 262 264 272 278 286 287 290 284 279 266 253 250 247 250 252 245 236 207 176 168 166 168 194 221 224 205 269 285 200 211 232 241 263 250 251 251 243 237
270 282 276 292 261 270 271 276 286 293 289 280 285 283 282 287 291 274 231 235 234 231 239 266 171 153 154 186 171 251 249 232 244 259 289 178 217 222 250 254 253 258 253 244
267 266 277 257 248 270 280 291 295 296 287 288 270 267 276 267 259 247 238 205 204 230 202 133 143 187 184 193 250 221 251 286 283 270 275 277 234 232 245 254 252 247 249 249
276 278 279 272 275 259 256 290 278 274 274 262 264 257 262 259 268 258 217 162 170 180 190 185 193 180 168 232 220 224 234 249 269 277 279 285 276 278 262 249 262 255 260 262
262 257 243 243 256 248 253 249 266 260 251 252 260 284 318 300 246 318 135 148 169 190 206 201 183 172 192 212 204 232 239 249 229 221 248 260 273 271 279 276 261 259 245 265
271 273 274 292 274 256 259 247 254 271 278 281 287 223 267 309 316 237 183 177 170 188 251 215 202 193 211 212 191 207 233 257 252 261 250 246 248 254 256 266 272 270 272 259
294 288 294 264 279 269 252 241 260 283 307 289 277 277 278 234 232 241 228 187 241 211 235 254 192 258 251 253 221 206 206 239 257 253 271 280 274 263 261 248 249 257 252 256
283 293 292 296 294 263 274 290 275 259 264 270 269 282 296 342 170 231 227 239 227 196 219 240 232 225 235 255 265 215 214 213 231 241 238 263 277 277 266 270 265 261 264 267
276 275 279 285 272 271 254 237 268 262 243 253 267 269 156 261 178 214 258 203 217 223 229 249 243 236 245 266 252 235 213 220 216 228 240 253 258 273 281 279 275 272 268 269
295 304 287 264 287 292 271 273 256 259 250 234 283 278 135 243 45 316 292 253 243 232 238 246 261 270 279 266 262 253 242 236 235 244 256 256 275 289 270 269 274 275 270 265
307 236 284 293 291 265 6 319 309 323 323 266 261 263 259 186 212 314 296 317 335 266 246 263 272 276 256 254 258 260 249 241 235 232 236 236 251 274 272 262 266 273 273 270
332 282 269 269 277 293 300 279 261 244 289 294 268 280 288 281 209 200 241 285 287 269 263 260 258 263 263 262 268 270 269 268 267 239 259 238 253 261 278 285 276 262 266 267
279 265 261 271 297 298 289 287 278 232 237 250 269 272 277 279 287 264 222 227 257 266 267 275 279 279 280 282 280 266 262 262 262 269 228 256 250 266 262 264 269 277 271 265
169 227 268 275 277 273 279 289 274 271 252 239 265 274 278 272 266 268 277 284 305 330 286 265 254 260 261 244 250 254 264 292 279 259 258 262 264 261 268 270 275 277 275 276
288 290 290 287 291 300 292 272 276 283 305 287 294 333 348 346 312 329 351 337 314 285 284 309 312 317 326 317 315 321 306 281 269 257 252 253 251 246 255 269 274 270 268 270
259 266 278 284 291 274 277 312 330 297 302 355 328 331 321 275 295 308 313 284 262 304 323 319 311 305 292 284 290 285 283 277 270 260 256 255 253 249 253 260 258 260 268 270
256 257 293 263 268 278 288 13 353 18 306 325 343 345 333 320 317 295 276 304 332 325 321 319 312 304 295 284 280 275 270 268 263 251 248 248 247 243 243 253 255 252 258 266
73 39 216 258 273 285 37 115 261 249 261 1 347 331 314 325 309 304 334 324 318 312 304 301 296 291 287 282 282 274 269 264 254 252 251 248 241 239 244 247 250 250 257 257
205 188 219 244 243 273 27 351 332 280 325 329 329 318 321 312 298 304 307 306 303 306 300 296 291 288 292 293 289 285 287 286 287 274 267 260 241 232 239 246 245 244 249 253
179 291 255 220 247 270 22 352 6 314 327 328 317 318 316 316 313 306 303 301 303 302 300 301 299 298 300 296 292 289 285 287 281 280 270 258 252 248 250 242 234 246 243 240
12 18 271 290 310 315 4 353 345 338 320 321 319 314 312 308 300 302 304 296 301 306 307 300 296 292 289 295 296 291 286 289 291 290 277 263 249 234 227 225 231 231 229 226
323 336 305 323 328 332 339 340 339 333 322 316 311 314 319 313 311 303 306 306 300 297 297 302 299 292 292 291 291 290 301 298 287 277 279 280 270 216 201 208 213 225 217 214
350 310 340 301 315 334 316 330 323 316 310 307 317 311 301 295 296 299 297 296 299 302 300 297 303 303 299 297 293 292 288 284 282 283 292 351 84 139 173 196 210 218 216 207
13 17 330 281 313 302 298 308 308 308 312 319 314 310 308 306 304 297 294 299 300 299 301 298 291 290 290 291 289 292 281 272 273 291 299 130 114 133 162 179 172 216 224 197